Location: Ravensburg
(47.7866°N, 9.6124°E)
Time: 09:11:42
(UTC+02:00)

YUBILEINY - Pass Details

Date: 18 March 2026
Orbit: 1477 x 1509 km, 82.5° (Epoch: 17 April)

Event Time Altitude Azimuth Distance (km) Brightness Sun altitude
Rises 01:25:36 0° 353° (N) 4,622 ? -41.7°
Reaches altitude 10° 01:29:20 10° 7° (N) 3,635 ? -41.5°
Maximum altitude 01:36:03 24° 58° (ENE) 2,698 ? -41.1°
Drops below altitude 10° 01:42:43 10° 109° (ESE) 3,613 ? -40.6°
Sets 01:46:23 0° 123° (ESE) 4,589 ? -40.4°
Enters shadow 01:46:24 - 123° (ESE) 4,597 ? -40.4°
